GEFSMW_500_meanwind_000.txt.gz
Wind_Speed
34 35 36 38 38 35 34 28 25 24 26 27 26 25 25 24 23 24 26 24 21 20 21 21 21 23 26 30 34 38 39 36 33 31 29 28 27 27 27 29 30 31 35
34 36 37 38 37 36 33 28 27 27 26 23 21 20 20 19 19 21 21 18 16 17 17 17 19 22 26 28 32 36 38 37 36 35 33 29 28 26 26 29 32 34 35
36 36 37 38 36 35 31 28 27 25 22 21 21 19 17 17 18 19 18 17 17 17 16 16 18 22 26 30 33 36 37 37 36 36 34 32 29 29 27 27 30 33 35
38 37 37 37 33 30 28 28 30 28 24 24 23 21 20 21 21 21 20 19 17 16 17 17 19 23 25 29 32 35 35 35 35 36 35 34 31 31 29 28 28 29 31
41 38 34 31 29 29 32 34 34 30 27 26 27 26 25 25 26 27 26 24 22 21 20 21 22 24 26 29 31 30 32 34 34 34 35 34 33 32 32 30 30 31 33
37 33 30 28 28 30 32 33 33 32 29 28 29 28 30 31 31 32 32 30 27 24 21 21 23 23 26 30 32 32 32 33 32 31 32 34 35 34 34 34 32 31 33
29 30 29 23 26 30 32 33 33 33 32 32 31 30 32 34 34 35 36 35 32 27 23 21 23 25 27 30 33 33 32 31 29 29 30 32 34 36 37 36 35 36 36
28 30 32 31 34 36 36 35 36 35 37 38 36 35 35 37 35 34 35 34 34 31 25 23 24 26 28 30 33 32 30 29 29 28 30 31 34 37 37 37 37 37 37
31 32 32 35 37 38 38 39 39 40 44 44 43 42 41 40 38 35 33 32 32 30 25 24 26 26 26 29 31 31 29 28 27 28 30 31 33 36 36 37 38 37 35
37 38 38 37 38 41 44 45 46 49 51 51 50 48 45 43 40 37 37 36 32 29 25 23 24 24 25 28 30 31 31 28 26 25 27 30 31 34 34 34 35 35 33
41 42 44 44 43 45 48 50 52 54 55 56 56 55 53 50 44 39 36 35 33 28 27 23 23 24 26 28 29 31 31 30 26 24 25 27 28 30 31 32 32 33 34
42 44 46 48 49 50 52 55 58 60 61 61 61 60 61 58 52 46 39 38 33 26 27 32 30 30 30 29 28 29 31 31 27 23 24 24 24 26 29 30 30 31 31
46 47 50 52 53 55 55 57 59 62 65 66 65 66 65 64 61 54 46 40 35 33 35 39 37 35 33 31 29 27 29 28 28 26 24 22 21 22 23 24 25 27 29
49 51 53 54 58 59 57 56 61 68 72 71 75 77 74 71 65 59 54 45 37 39 42 43 41 38 34 30 27 27 26 25 26 26 24 21 18 15 14 15 19 25 30
51 55 60 63 68 64 64 63 67 65 62 67 72 76 62 60 70 68 63 50 51 54 50 46 44 42 38 33 29 29 27 26 27 25 25 21 14 10 13 14 16 22 27
62 65 68 71 74 76 76 75 76 77 70 69 73 64 61 65 71 70 67 66 77 77 65 50 47 45 41 37 35 31 30 28 28 27 24 22 16 17 14 16 18 21 25
73 77 80 82 84 85 85 83 81 88 88 87 85 86 86 80 76 78 79 79 78 74 62 50 46 43 41 40 39 36 32 29 28 27 23 22 18 17 14 14 17 21 24
82 83 84 84 83 80 77 73 69 68 69 67 64 71 80 87 84 80 83 81 80 72 62 51 51 50 46 41 40 38 35 32 28 28 23 20 18 15 16 14 16 21 25
79 75 70 65 61 55 46 40 36 34 34 37 39 39 43 51 60 67 70 74 78 75 65 57 49 51 52 48 44 41 38 36 32 30 26 20 18 16 17 18 18 17 18
59 52 45 41 38 38 41 44 41 39 37 37 36 37 37 36 37 41 50 57 64 68 67 64 53 49 50 50 47 44 40 39 34 31 29 24 21 18 16 16 16 18 20
38 36 38 40 43 46 48 49 50 50 47 45 46 46 39 34 35 35 37 41 48 58 61 60 58 56 51 47 45 44 41 38 35 32 31 28 25 21 19 19 19 19 23
37 40 43 47 51 52 51 51 51 50 49 48 49 48 43 37 35 33 31 31 33 41 49 54 58 55 46 44 45 45 40 35 34 33 31 29 26 23 23 24 24 25 26
44 47 48 48 49 51 52 50 48 49 52 52 49 48 48 42 38 36 31 26 24 27 38 50 61 56 48 51 55 49 41 36 34 33 32 28 25 25 26 26 27 29 29
48 48 47 48 48 49 52 55 53 53 54 52 51 51 48 48 45 40 33 26 23 25 25 33 55 61 59 49 51 47 42 38 34 33 31 25 24 25 27 28 26 24 22
49 51 54 54 51 51 52 52 54 56 58 53 52 54 54 54 47 43 35 26 24 26 25 21 40 63 66 53 50 43 38 36 34 33 29 25 25 27 29 27 23 21 21
52 55 57 54 49 48 49 49 52 56 53 49 48 48 48 45 45 45 41 30 28 28 23 19 26 39 57 57 51 42 39 38 35 32 28 27 27 26 27 24 22 22 22

GEFSMW_500_meanwind_006.txt.gz
Wind_Speed
48 50 46 39 37 39 40 41 39 38 40 41 41 37 34 32 29 27 25 24 23 22 21 20 17 17 17 16 16 16 17 19 21 23 24 25 26 27 29 32 32 30 30
47 46 37 33 33 36 39 41 41 40 41 41 39 36 35 32 29 26 25 24 22 21 20 18 17 17 17 16 16 16 17 20 22 24 24 23 24 27 29 31 33 32 32
39 36 33 32 36 38 39 42 43 43 42 40 39 38 37 35 32 29 27 25 24 22 20 20 20 19 19 19 18 17 18 20 23 25 25 23 23 26 28 30 32 33 33
31 21 22 29 36 40 41 43 43 42 39 38 37 35 33 31 30 28 27 26 24 22 22 22 22 22 23 23 22 20 19 20 23 25 26 26 25 24 26 30 31 33 33
32 31 29 32 36 39 40 42 36 33 33 32 33 30 28 27 27 27 26 25 24 24 24 25 26 27 28 27 25 24 22 22 23 25 26 26 26 25 25 26 30 32 32
33 31 29 31 35 37 38 36 31 30 32 32 33 31 29 27 27 29 29 28 28 27 26 27 29 31 33 33 30 27 25 24 24 25 26 26 25 24 24 24 27 30 31
31 30 30 32 35 37 37 37 36 35 35 36 37 37 34 31 30 31 31 32 33 33 32 31 32 33 34 34 32 30 28 27 26 25 25 25 24 24 24 25 26 28 30
37 36 36 38 40 41 42 42 42 42 42 42 42 42 41 39 38 37 36 36 37 38 38 37 37 36 35 34 34 32 30 29 27 26 25 24 24 24 24 25 26 28 30
44 44 44 44 45 47 48 49 50 50 50 50 50 49 49 48 47 47 46 44 43 42 42 40 38 38 38 37 35 34 33 30 28 27 26 24 23 23 23 23 25 26 28
48 50 50 51 51 52 53 54 56 56 56 57 57 57 57 56 55 54 54 54 53 50 47 44 40 39 39 39 38 36 34 31 29 28 27 24 22 22 22 22 22 24 26
51 53 54 55 56 56 57 58 59 60 61 61 61 61 61 62 62 62 61 61 60 58 54 50 48 46 43 41 40 37 35 33 31 31 29 26 23 21 20 21 21 21 23
54 55 56 57 58 59 59 60 61 62 63 64 64 64 63 63 64 65 66 66 65 63 59 54 50 51 49 44 41 38 36 33 31 30 30 27 24 21 20 20 20 20 21
58 61 63 63 64 64 65 65 66 67 67 67 67 68 68 68 68 68 69 71 70 68 64 58 52 51 51 48 44 41 38 34 31 29 29 27 24 22 21 20 20 19 19
63 64 65 65 67 68 69 70 71 73 74 74 74 74 75 75 75 74 74 75 75 72 69 64 59 54 53 53 50 46 43 37 32 30 29 27 25 23 22 20 19 18 18
68 70 72 74 76 77 77 77 77 77 77 77 77 78 79 80 80 81 81 81 79 74 72 69 65 61 59 60 58 53 49 42 35 32 31 30 27 25 23 21 19 18 18
74 77 79 80 80 78 76 72 67 63 59 57 56 57 59 62 66 72 78 81 82 81 78 77 74 68 62 61 62 58 53 47 40 35 33 32 30 27 24 23 21 19 18
76 76 73 69 63 57 52 47 42 39 37 35 34 34 35 37 39 43 49 55 61 67 72 76 75 70 65 60 57 57 56 52 45 40 36 33 32 29 26 24 23 20 18
69 62 55 50 46 43 40 39 37 37 36 35 35 36 36 35 34 32 30 31 32 37 45 55 63 65 66 64 57 52 53 53 49 44 40 35 32 30 27 25 24 21 17
54 49 47 45 44 43 42 43 43 43 44 43 43 43 43 42 40 37 35 32 29 28 28 31 38 49 57 63 64 59 54 52 50 47 42 37 34 31 28 27 25 22 18
48 48 49 50 49 48 48 48 48 48 48 46 46 46 46 46 43 41 39 37 34 30 28 26 26 29 39 52 60 63 60 57 54 51 47 42 38 34 31 29 27 24 21
50 52 53 54 54 53 53 53 52 52 50 48 48 47 46 45 42 40 37 36 34 32 29 28 27 27 28 35 47 57 60 56 55 54 51 48 43 38 35 32 30 27 23
53 56 57 57 57 56 55 55 55 54 53 51 49 48 46 44 41 39 37 37 36 34 33 31 29 28 29 30 36 47 56 57 55 55 55 51 46 42 38 34 33 30 25
56 57 58 58 57 56 55 54 53 53 52 51 49 47 45 42 41 40 39 39 39 37 36 33 30 29 29 29 31 41 54 57 54 52 52 51 49 46 41 37 34 32 27
58 59 58 56 54 53 53 52 51 50 49 47 45 44 42 40 39 39 37 37 37 38 37 34 31 30 29 29 29 37 53 59 53 51 51 51 50 47 43 38 35 32 28
59 60 58 56 53 52 50 49 47 46 44 42 40 38 38 37 36 36 35 34 35 35 34 33 30 29 29 28 28 32 48 59 53 50 51 51 49 44 40 37 33 31 28
60 59 58 56 53 50 47 44 41 39 37 34 32 31 31 32 32 31 31 31 33 33 33 32 29 27 28 27 27 29 42 56 54 49 47 46 44 40 37 33 30 29 28

GEFSMW_500_meanwind_012.txt.gz
Wind_Speed
47 49 50 53 53 52 51 46 32 21 18 16 15 16 19 20 21 22 21 21 19 19 18 17 16 15 15 15 15 15 16 16 16 15 15 15 14 13 14 15 16 17 19
44 44 45 47 47 46 44 36 26 19 18 18 18 18 19 20 19 19 19 19 19 19 18 18 17 16 15 15 15 16 17 18 18 17 16 16 15 14 13 13 14 16 18
35 37 39 41 41 40 37 35 28 25 21 20 20 20 17 16 16 17 16 16 17 17 18 18 17 17 16 16 17 17 18 20 20 20 19 18 18 17 16 15 15 15 17
33 35 37 38 38 37 36 35 32 29 25 24 24 21 19 19 18 18 16 15 16 18 18 19 19 19 19 19 19 19 20 21 23 23 22 21 19 19 20 18 16 15 17
31 35 37 39 40 38 36 34 34 34 32 31 29 26 24 24 23 22 20 19 19 20 20 21 22 22 22 22 22 22 23 24 25 26 25 24 22 20 19 21 19 17 17
32 36 39 42 43 42 40 39 39 39 39 39 37 35 33 31 31 30 28 26 25 24 24 24 24 25 25 26 25 25 26 27 27 27 27 26 25 23 20 20 21 20 19
33 38 43 45 47 47 47 46 45 45 45 45 45 44 42 41 40 39 38 36 34 32 30 29 28 29 29 29 29 28 28 29 29 29 29 28 27 25 23 21 20 20 21
38 43 46 49 50 50 50 50 50 49 50 50 49 49 49 48 47 47 47 46 45 42 39 37 36 35 35 34 33 32 31 31 31 31 30 29 29 28 26 25 22 21 22
46 49 51 53 54 54 54 54 53 53 53 53 53 54 54 54 53 53 52 52 52 51 49 47 45 43 42 40 39 37 36 35 34 33 32 31 31 30 29 27 25 23 22
52 55 56 58 59 59 60 60 60 59 59 59 59 59 59 59 59 58 58 57 57 56 56 55 54 52 50 47 45 42 41 40 38 36 35 34 33 32 31 30 28 25 23
54 57 59 60 62 64 65 66 67 68 68 67 67 66 66 65 65 64 63 62 62 61 60 60 59 59 57 54 51 48 46 44 42 40 38 36 35 34 34 32 30 27 24
57 60 62 64 67 69 71 73 74 75 74 74 73 71 70 69 69 69 69 69 67 66 65 64 63 62 61 59 57 53 51 48 46 44 42 40 37 35 34 33 30 28 25
60 62 65 68 70 73 75 76 77 75 72 69 66 62 60 59 60 62 66 69 71 72 71 69 68 66 65 63 60 58 55 53 50 48 44 42 39 36 35 33 31 29 26
63 66 69 70 72 72 72 71 68 65 61 58 55 52 50 49 48 48 51 56 63 69 73 74 72 71 69 66 63 60 57 55 52 49 46 42 41 39 37 34 31 29 27
65 66 66 65 63 62 61 60 58 57 55 53 51 49 47 45 43 42 40 41 45 53 61 68 72 74 73 71 68 64 61 57 53 50 47 43 41 40 38 36 33 30 27
60 58 57 56 57 58 58 59 58 57 57 55 53 51 48 46 43 40 37 36 35 37 41 47 55 64 69 72 72 69 65 61 56 52 48 45 43 42 40 38 35 31 27
54 54 56 58 59 60 60 60 60 59 59 58 56 53 51 48 46 43 41 38 35 33 32 33 36 43 53 62 68 71 69 66 61 55 50 47 44 43 42 40 37 32 28
53 55 58 60 62 63 63 62 61 61 60 58 56 55 53 51 49 47 44 41 38 36 33 31 30 31 35 42 51 60 66 67 64 60 54 50 47 44 43 42 39 35 29
55 58 60 64 66 66 65 64 63 61 59 57 54 52 52 51 50 48 46 44 42 39 36 35 34 32 31 32 37 43 53 60 63 62 58 54 51 46 44 43 41 37 32
56 59 63 65 66 64 62 60 58 56 53 50 48 47 47 47 48 47 46 45 44 42 39 36 35 34 32 31 31 32 38 47 56 60 59 56 54 49 45 44 42 39 34
57 61 64 65 64 61 58 56 54 51 47 44 42 41 42 43 44 45 43 43 43 42 40 38 36 35 33 31 30 29 30 36 46 55 57 56 54 52 47 45 44 42 37
58 61 64 65 63 60 56 53 50 46 41 37 35 35 35 37 38 40 40 40 40 40 39 37 36 34 33 32 30 27 24 27 39 50 54 54 52 51 49 46 46 44 39
58 61 64 64 62 58 54 51 46 42 36 31 28 26 27 29 31 32 34 35 37 38 37 35 34 33 32 31 30 27 24 20 31 46 52 54 50 49 48 47 46 44 40
57 61 64 64 60 56 53 51 47 42 35 30 26 22 20 21 23 26 27 29 31 33 34 34 33 32 31 30 29 27 23 21 24 41 49 54 52 49 48 47 45 43 39
56 60 63 63 59 54 52 51 48 43 36 29 25 20 16 14 15 17 20 22 25 28 30 31 31 31 31 30 29 27 24 22 22 33 46 51 53 50 48 46 44 42 38
54 58 61 62 58 53 50 51 50 47 40 32 25 18 13 9 9 11 14 17 20 24 26 29 30 31 31 31 29 27 25 23 22 27 40 48 50 50 47 45 44 40 35

GEFSMW_500_meanwind_018.txt.gz
Wind_Speed
37 38 41 42 45 45 44 41 39 38 38 37 36 30 23 18 17 21 26 26 24 23 22 22 24 24 25 24 24 24 24 24 24 24 24 23 22 21 19 18 16 15 15
39 41 43 44 45 44 41 38 37 37 38 37 35 31 27 23 18 17 17 19 21 21 21 23 24 25 26 25 25 25 24 24 24 24 23 23 22 21 19 18 16 15 14
38 39 41 41 40 39 39 39 39 39 39 38 37 34 31 28 24 20 19 20 21 21 22 23 25 26 27 27 27 26 25 25 24 24 24 23 23 22 20 19 18 16 15
30 32 32 34 35 37 39 41 41 41 40 39 38 35 32 30 27 25 23 23 23 24 25 26 26 27 28 29 29 28 28 27 26 26 25 25 25 24 23 21 20 18 17
28 29 31 33 35 37 39 41 43 43 43 42 40 39 37 34 32 30 29 29 28 28 29 30 30 30 31 31 32 31 31 30 29 29 28 27 26 26 26 24 21 19 18
31 33 34 36 37 39 41 43 44 44 45 44 43 42 41 39 38 36 35 35 35 35 34 34 34 35 35 35 35 35 34 33 32 32 31 30 29 28 28 27 24 22 20
35 36 36 37 38 40 41 41 42 43 43 44 44 44 44 44 43 42 41 41 41 42 41 40 40 40 39 39 39 38 37 37 36 35 34 33 32 30 30 29 27 25 23
37 37 38 39 40 40 41 42 42 42 43 44 45 46 47 48 48 48 48 47 47 48 48 48 47 46 45 44 43 42 41 41 40 39 38 37 35 34 32 31 29 28 26
38 40 41 43 44 44 45 46 45 44 43 43 44 45 47 48 50 52 53 54 54 54 54 54 53 53 52 50 49 47 46 45 44 44 43 41 40 38 36 34 32 30 28
41 43 45 47 48 49 49 47 44 42 41 42 43 44 45 46 47 48 51 55 58 59 60 60 59 59 58 58 56 54 52 50 49 48 47 46 44 42 40 37 34 32 30
45 47 50 52 52 51 49 48 47 48 49 49 50 51 52 52 52 52 52 52 54 58 61 64 65 65 65 64 63 62 59 57 55 53 52 50 49 47 44 41 37 34 32
48 50 52 52 50 49 48 49 51 54 56 58 59 61 61 60 58 56 55 55 55 55 58 61 65 68 70 70 68 67 65 64 62 60 57 55 53 51 47 44 41 37 34
49 52 51 49 47 47 48 51 54 57 60 63 65 66 65 64 62 59 56 55 54 54 56 58 62 65 69 73 74 73 71 69 67 65 63 60 57 55 52 48 44 40 37
51 51 48 46 45 46 49 53 57 60 63 66 67 67 67 66 64 60 57 54 53 52 53 54 56 59 63 67 72 76 76 74 72 70 68 64 61 58 56 52 48 44 40
50 49 46 44 45 47 51 55 59 63 65 66 66 66 66 65 62 59 55 53 52 51 51 51 52 53 55 58 62 68 74 77 76 74 71 69 65 62 59 55 52 48 43
50 46 43 43 45 49 53 58 62 64 66 65 64 63 62 62 60 56 52 49 48 48 49 49 50 50 49 50 51 55 61 70 75 76 75 73 69 65 61 58 54 50 45
48 44 43 44 47 51 56 60 64 65 63 62 62 62 61 58 55 51 48 45 43 44 46 46 47 47 46 45 45 46 48 54 64 72 76 76 72 67 63 59 55 52 47
46 43 44 46 49 53 57 61 64 63 61 60 61 61 58 53 48 44 41 40 39 40 42 45 45 46 44 42 41 40 41 42 47 57 67 74 74 69 64 59 56 53 48
46 45 46 48 51 54 58 61 62 60 59 60 60 59 54 48 42 38 35 34 35 36 39 43 44 44 42 40 38 36 35 35 37 42 52 62 70 69 65 60 56 52 49
48 46 47 49 51 55 58 61 60 58 57 58 59 55 50 43 37 32 28 28 30 32 35 39 42 43 41 40 37 34 32 30 31 34 40 49 59 64 64 60 56 52 49
48 46 47 48 51 55 58 60 58 56 57 57 57 52 45 38 32 26 22 22 25 28 31 35 38 41 40 39 37 34 31 29 28 29 32 38 48 56 60 59 55 52 50
48 46 46 48 51 55 58 59 57 55 56 55 54 50 43 35 28 22 18 16 19 24 28 31 34 37 38 38 37 34 31 29 27 26 27 32 40 50 56 56 55 52 49
48 46 45 47 50 54 58 58 56 55 55 54 52 48 42 34 26 20 14 11 14 19 24 28 31 33 35 36 35 33 30 28 26 24 24 27 36 46 53 54 53 52 48
48 45 45 46 49 53 56 56 55 54 54 53 51 47 41 34 27 20 13 8 7 13 19 24 27 29 32 33 33 32 29 26 25 23 22 24 33 43 50 53 52 50 47
48 46 44 45 48 51 53 54 54 52 52 52 50 46 41 35 28 21 14 8 4 6 13 19 24 26 28 29 30 29 28 26 24 23 23 24 31 42 49 51 50 49 47
48 45 44 44 46 49 51 52 52 51 50 50 49 45 41 36 30 22 15 9 4 2 8 15 20 23 25 26 26 26 25 24 23 22 23 25 31 42 48 50 50 48 46

GEFSMW_500_meanwind_024.txt.gz
Wind_Speed
27 29 31 33 34 35 36 37 38 38 37 37 37 37 37 37 37 36 33 31 28 27 27 32 36 40 42 41 40 40 39 37 36 34 33 32 32 31 30 29 27 26 24
25 27 28 29 31 33 34 35 36 37 37 37 38 38 38 38 37 36 34 31 28 26 24 28 34 39 40 41 41 39 38 37 36 34 33 32 31 30 30 29 27 26 23
25 27 29 31 32 33 34 36 37 38 39 40 40 40 39 39 38 37 35 33 30 27 26 26 29 33 36 38 40 39 37 36 35 34 32 31 31 30 29 29 28 26 23
27 28 31 32 34 35 36 38 39 40 40 41 42 42 41 40 39 38 37 35 33 31 29 28 28 28 30 33 35 36 35 35 35 34 33 32 31 30 30 29 28 27 25
29 31 33 34 35 35 37 38 39 41 42 43 43 43 43 42 41 40 38 38 36 35 34 33 32 31 31 32 34 34 34 35 35 35 34 33 32 32 32 31 30 28 27
31 32 33 34 35 36 38 39 40 42 44 45 45 45 44 43 42 41 40 39 39 38 38 38 37 36 36 36 37 37 37 36 37 37 37 36 35 35 34 34 32 31 29
32 32 33 34 36 37 39 41 42 43 44 44 44 43 42 41 40 40 41 41 41 41 41 42 42 42 42 42 42 41 41 40 40 40 40 39 38 38 37 36 35 34 32
32 33 35 36 38 39 40 41 42 42 41 40 39 39 39 39 39 40 41 41 43 44 45 46 47 47 48 48 48 48 46 45 44 43 42 42 42 41 41 39 38 37 35
33 35 37 39 40 41 42 42 41 39 37 37 36 36 37 39 40 42 43 44 44 46 48 49 51 53 54 55 55 55 53 52 49 48 47 46 45 45 44 43 41 40 39
36 38 39 40 41 43 43 42 39 37 36 36 36 37 39 41 43 45 47 48 49 50 51 52 54 56 58 59 61 61 61 60 57 54 52 51 49 49 48 46 45 44 42
37 38 39 41 42 43 42 40 38 37 36 37 38 40 43 45 48 49 51 52 53 55 56 57 58 58 60 62 64 66 67 67 65 62 58 56 55 53 51 50 48 47 45
38 39 40 41 42 42 41 39 38 38 38 39 41 44 47 49 51 52 54 56 57 58 59 60 61 63 63 64 66 68 70 71 71 70 66 62 59 57 55 53 52 50 49
38 39 41 42 43 42 40 39 39 39 40 42 44 47 49 51 53 55 57 59 59 59 59 60 62 64 65 67 68 70 72 73 74 75 74 70 65 61 59 58 55 53 52
40 40 41 43 43 42 40 40 39 40 42 44 47 49 51 53 55 57 58 59 59 59 58 59 61 63 64 66 67 70 73 75 76 76 77 77 73 67 62 60 59 57 54
41 42 42 43 43 41 40 40 40 41 43 46 49 51 53 54 56 58 59 59 58 57 57 58 59 61 63 64 65 67 70 73 76 77 78 79 79 74 69 62 60 60 58
42 42 42 43 43 42 41 40 41 42 45 48 51 52 54 55 57 57 57 55 53 52 51 52 53 56 59 61 62 64 66 68 71 74 76 78 80 79 76 69 63 59 58
43 43 43 44 43 42 42 42 42 44 47 50 52 54 54 56 56 56 54 50 47 46 45 45 46 49 52 54 57 60 61 63 64 67 71 75 78 79 78 77 69 62 57
44 45 45 45 44 44 43 43 44 46 49 52 53 54 54 56 55 54 50 46 42 39 37 36 37 40 44 48 50 53 55 56 57 59 62 68 73 76 77 77 75 69 61
47 47 47 46 46 45 44 44 45 47 50 52 53 53 54 55 54 52 47 42 37 33 30 29 30 33 36 41 44 44 46 48 49 52 54 58 64 71 75 75 74 72 69
48 48 48 48 47 46 45 45 46 47 49 52 52 52 52 53 52 49 44 39 34 29 25 22 23 25 29 34 38 39 39 42 43 45 46 50 54 61 68 71 71 72 71
48 48 48 48 47 46 45 45 46 47 49 51 51 51 51 51 50 46 41 36 31 26 20 16 17 20 24 29 32 34 35 36 38 39 40 41 45 52 58 63 66 68 69
48 48 48 47 47 47 45 45 46 46 48 50 50 49 50 49 47 43 39 34 29 23 16 11 11 16 20 24 27 30 32 33 33 35 36 37 38 41 47 53 58 63 66
48 48 47 46 47 47 46 45 45 46 47 48 48 48 48 47 45 41 37 32 27 21 14 8 6 11 16 21 24 27 30 30 31 32 33 32 32 34 38 43 49 55 60
48 47 46 46 46 46 45 45 44 44 45 46 47 48 46 44 43 39 35 30 25 19 13 7 4 9 12 16 20 24 27 28 28 29 29 29 28 29 31 35 41 47 53
47 46 46 45 45 45 45 44 43 43 44 45 46 46 45 43 40 37 34 29 24 19 13 7 2 6 10 14 18 23 25 25 26 27 27 26 26 26 28 31 35 40 46
46 45 45 45 45 45 44 43 42 42 42 43 44 44 44 42 39 36 32 28 23 19 14 8 1 6 10 13 17 21 23 24 25 25 25 25 25 26 27 30 33 36 43

GEFSMW_500_meanwind_030.txt.gz
Wind_Speed
18 20 22 24 25 28 30 31 33 34 35 35 35 36 36 36 37 37 36 36 36 36 36 36 35 34 32 31 32 33 35 35 35 36 35 35 35 34 34 33 32 31 29
18 21 22 24 27 28 30 31 33 34 35 35 36 36 36 36 37 38 38 38 37 38 38 37 36 35 33 32 31 31 31 34 36 35 35 35 36 36 36 34 33 32 30
21 23 26 27 29 30 32 33 34 34 35 36 37 38 39 39 39 40 40 39 39 40 40 39 37 35 34 32 31 31 31 32 34 34 36 37 38 36 36 34 34 33 31
25 26 28 30 31 32 33 34 34 35 37 39 40 41 41 41 41 42 41 41 41 41 40 39 37 35 35 34 33 32 32 31 33 35 36 38 38 37 36 35 35 33 31
27 28 29 30 31 33 35 36 36 37 38 40 42 43 43 43 43 43 42 41 40 40 39 37 36 35 34 34 33 33 33 32 33 34 35 36 38 39 36 33 34 33 32
28 28 29 30 31 33 35 36 37 38 39 41 42 43 43 43 42 42 40 39 38 38 37 37 36 35 35 35 34 34 33 33 33 33 34 34 35 38 39 37 34 33 32
27 28 30 31 32 33 34 36 37 38 39 40 41 41 41 41 40 40 39 38 37 37 37 37 36 36 36 36 36 36 36 36 36 35 34 34 33 36 39 39 38 35 33
29 30 31 31 33 34 35 36 37 38 39 39 39 39 39 39 39 39 39 38 38 38 39 39 39 39 39 39 39 39 40 40 40 38 37 36 35 37 39 39 39 37 36
29 30 31 32 34 35 35 36 37 38 39 39 39 39 39 38 38 38 39 39 40 41 42 43 44 44 44 44 44 43 43 43 44 44 43 42 40 39 40 41 40 39 37
30 31 32 34 34 36 36 37 38 38 38 38 39 39 38 38 38 38 38 39 41 43 44 46 47 48 49 50 50 50 49 48 48 48 48 47 44 42 41 41 41 41 40
32 33 34 35 36 37 38 38 39 39 39 39 39 39 39 39 39 39 40 41 42 43 45 47 49 51 52 54 54 54 53 53 53 53 52 52 50 47 45 44 43 43 42
33 34 35 37 38 38 39 40 40 40 40 40 40 40 40 40 40 41 42 43 44 45 46 48 50 53 55 56 57 58 58 58 57 57 57 57 56 53 51 48 45 45 45
35 36 37 38 39 40 41 42 42 42 42 42 42 41 41 42 42 43 43 44 45 46 48 50 52 53 55 57 59 61 61 62 62 62 61 61 61 60 57 54 51 48 47
37 38 39 40 40 41 42 42 42 42 43 43 43 43 42 42 43 43 44 45 46 48 49 50 51 53 55 57 59 60 61 62 63 63 63 64 64 64 63 60 57 54 51
38 39 40 41 41 42 42 43 43 43 43 43 44 43 43 43 43 44 45 46 48 49 49 50 51 52 52 53 55 57 58 58 60 61 61 65 67 67 67 66 62 60 57
38 39 41 42 42 43 43 43 44 44 44 44 44 44 43 43 44 45 46 47 48 48 49 49 48 47 47 47 49 52 54 56 58 59 59 61 66 68 69 69 67 64 61
39 40 41 42 43 44 44 44 45 45 45 45 45 44 44 44 44 45 46 47 48 47 47 46 44 43 43 43 45 46 48 50 53 55 57 58 60 64 68 70 70 68 65
40 41 42 43 44 44 45 46 46 47 47 46 45 44 44 44 44 46 47 47 47 45 44 42 41 40 39 40 41 41 42 43 46 50 52 54 56 59 63 66 68 68 67
41 42 43 43 44 44 45 46 47 48 47 46 45 45 44 44 44 46 46 46 45 43 41 39 38 37 36 35 33 32 33 34 38 42 46 48 50 53 57 60 63 65 65
41 41 42 43 44 45 46 47 48 48 47 46 45 44 43 44 44 45 45 44 42 41 39 37 36 34 31 28 25 23 23 25 30 35 40 44 45 47 50 53 56 60 62
41 42 43 45 46 46 47 48 48 48 47 46 45 43 43 43 44 44 43 42 41 39 37 35 34 31 27 23 20 16 16 20 25 30 34 38 41 43 45 47 50 54 57
42 42 43 45 47 48 48 49 49 48 47 46 44 43 42 43 44 43 41 40 39 37 36 33 30 27 22 18 14 11 11 15 20 25 29 32 35 38 40 42 45 48 52
42 42 43 45 47 48 49 49 49 48 47 45 43 42 42 42 43 41 39 38 37 36 34 31 27 23 19 14 10 7 7 13 18 21 24 27 30 33 35 38 41 44 47
41 42 43 45 47 48 49 50 49 48 46 45 43 42 41 41 42 40 38 37 35 34 32 29 24 19 15 10 6 4 6 12 17 19 21 24 27 28 30 33 37 40 42
42 43 44 45 47 48 49 50 50 48 46 44 42 41 41 41 41 39 37 35 34 32 30 26 22 17 12 8 5 3 6 12 15 17 18 20 23 25 27 29 31 35 37
42 43 44 46 47 48 49 50 50 48 46 44 42 40 40 40 40 38 36 34 33 30 28 25 20 15 11 7 2 3 6 11 14 16 17 18 20 22 24 26 27 30 34

GEFSMW_500_meanwind_036.txt.gz
Wind_Speed
14 16 17 19 21 24 26 28 30 31 33 34 35 35 36 36 37 37 36 36 36 36 36 36 36 36 37 36 36 35 34 33 33 33 32 33 32 32 32 33 35 35 35
12 14 17 19 21 23 25 27 29 31 32 33 34 34 34 34 35 36 36 36 36 37 36 36 37 37 37 38 38 37 36 35 33 32 30 31 31 32 32 32 34 35 37
12 14 16 18 20 21 23 25 27 28 29 30 31 32 33 33 34 34 35 35 36 36 35 35 35 35 35 36 36 36 36 35 34 32 31 30 30 31 32 33 34 35 36
12 14 16 18 19 21 22 24 25 26 28 29 30 31 32 33 34 34 34 34 34 34 34 33 32 32 33 33 34 34 34 34 33 33 32 31 30 30 31 32 33 34 35
12 15 17 19 20 22 23 24 25 26 28 29 29 30 31 32 33 33 33 34 34 34 34 32 31 31 31 31 31 31 32 32 32 32 31 31 30 30 30 31 32 34 35
15 17 19 21 22 23 24 25 27 28 29 30 31 31 32 33 33 34 34 34 35 35 35 34 32 31 31 31 31 31 31 32 32 32 32 32 31 30 30 31 32 34 34
19 21 23 24 26 27 28 29 30 31 32 32 33 33 34 34 34 35 35 35 36 37 37 36 35 34 32 32 32 32 32 32 32 32 32 32 32 32 31 31 33 33 34
23 25 27 29 30 31 32 33 34 35 35 35 35 35 35 35 35 36 36 37 37 38 38 39 38 37 36 34 34 34 34 33 33 34 34 33 33 33 32 31 31 33 34
27 29 31 33 34 35 35 36 36 36 35 35 35 35 35 35 36 37 38 38 39 39 39 40 40 40 39 38 37 36 37 36 36 36 36 36 35 35 34 33 31 32 34
30 32 34 35 36 36 37 37 37 36 36 36 35 35 35 36 37 38 39 39 39 40 40 40 41 41 41 40 40 39 39 39 39 39 39 39 39 38 37 36 35 34 35
31 34 35 35 36 36 36 37 37 37 36 36 36 36 37 38 39 39 40 40 40 40 40 40 40 40 41 41 41 41 41 41 41 42 42 42 43 42 41 39 38 37 35
31 33 34 35 35 35 36 36 36 36 37 37 37 38 39 40 40 41 41 41 40 40 39 39 39 40 41 42 43 43 44 44 44 44 45 45 46 46 45 44 42 41 39
31 33 33 34 34 34 35 36 36 37 38 38 39 40 41 41 42 41 41 41 40 39 39 39 39 40 41 42 43 45 45 46 46 47 47 48 49 48 49 49 48 46 44
31 32 33 33 34 34 35 36 37 38 39 40 40 41 42 43 42 42 41 40 39 38 38 39 39 40 41 42 43 44 46 47 47 48 49 50 51 51 52 53 53 51 49
32 33 33 34 34 35 36 37 38 39 41 41 42 43 43 43 43 42 41 40 38 38 38 39 39 40 41 42 43 44 46 47 48 49 50 52 53 54 55 56 57 56 54
33 34 34 35 36 36 37 39 40 41 42 43 44 44 44 44 44 42 41 39 38 39 39 40 40 40 40 41 42 43 44 45 46 48 50 52 53 55 57 59 60 60 59
34 35 36 37 37 38 39 40 42 43 44 45 46 46 46 45 44 43 41 39 39 39 39 39 39 39 39 40 40 41 42 42 44 46 48 50 52 54 57 60 62 63 63
35 37 37 38 39 39 41 42 43 45 46 47 47 48 47 46 45 43 41 40 39 40 39 39 38 38 38 39 40 40 40 41 42 44 45 47 49 52 55 59 63 65 66
36 37 38 39 40 41 42 43 44 46 47 47 48 48 48 46 44 43 41 40 40 40 39 39 38 37 38 39 38 38 38 38 39 41 42 44 47 49 52 56 60 65 67
37 38 39 39 41 42 43 44 45 46 47 48 48 48 48 46 44 43 41 41 41 40 39 38 38 37 37 36 35 34 34 35 36 36 38 41 43 46 50 53 57 61 66
37 38 39 41 42 43 44 45 46 47 47 48 48 48 48 47 45 43 41 41 40 39 39 38 37 36 34 34 32 31 30 30 30 30 31 34 37 41 46 49 53 57 62
38 39 40 42 43 44 45 45 46 47 47 47 48 48 48 47 45 43 41 41 40 39 38 36 34 33 33 31 28 26 25 24 23 23 23 25 29 34 40 45 49 53 58
39 40 42 43 44 45 45 46 46 46 47 47 47 47 48 47 45 43 41 40 39 38 36 34 33 32 31 28 25 22 20 18 16 15 15 18 22 27 34 39 43 48 52
41 42 43 44 45 45 45 45 46 46 47 47 46 47 47 46 44 42 41 39 38 37 34 33 31 30 28 25 21 18 17 14 11 9 9 13 17 23 29 34 39 43 46
43 43 43 44 45 46 46 46 46 46 46 46 46 46 46 45 44 42 40 38 37 36 33 31 30 28 26 23 19 16 13 10 7 4 4 8 13 20 26 31 36 40 42
44 45 45 46 46 46 46 46 46 46 46 45 45 45 45 44 43 41 39 37 36 35 32 30 28 26 23 21 17 14 10 7 4 2 3 6 11 16 21 26 31 37 40

GEFSMW_500_meanwind_042.txt.gz
Wind_Speed
19 18 17 17 18 19 21 22 24 25 26 27 28 29 29 30 30 30 30 30 31 31 32 32 33 34 34 35 35 35 35 35 34 34 33 33 33 32 31 31 30 30 32
14 14 15 17 19 20 21 23 24 26 27 28 29 30 30 31 31 30 30 30 30 30 31 31 32 33 33 34 34 34 35 35 35 35 34 33 33 33 33 32 31 31 32
10 12 13 16 17 19 21 23 25 26 27 28 29 30 31 31 31 31 30 30 29 29 30 30 31 32 32 33 33 34 34 34 35 35 34 34 34 34 33 32 31 31 33
7 10 12 15 17 19 21 23 24 26 27 28 29 29 30 30 31 31 30 30 30 29 29 29 30 30 31 32 32 33 33 33 34 34 34 34 34 34 34 34 33 32 33
7 10 13 15 17 19 20 21 22 24 25 25 26 27 28 28 28 28 29 29 29 29 29 29 30 30 31 32 32 32 32 32 33 34 34 34 34 34 34 34 35 33 34
9 11 13 15 16 17 18 20 21 22 23 23 24 25 26 26 26 27 28 28 29 29 30 31 32 32 33 33 34 34 34 34 34 34 34 34 34 34 34 34 35 35 34
9 11 12 14 15 16 18 19 21 22 23 24 25 25 25 26 26 27 28 29 30 31 32 33 34 34 35 36 36 36 36 36 35 35 35 35 35 34 34 33 34 35 35
10 11 12 13 15 16 18 20 22 23 25 25 26 26 26 26 27 27 28 30 31 32 34 35 36 36 37 37 37 38 38 38 37 37 37 37 36 36 35 34 34 35 36
10 12 13 14 16 18 20 22 23 24 25 26 27 27 28 28 28 29 30 31 33 34 35 37 37 38 38 38 38 38 39 38 39 39 39 39 39 38 37 36 36 35 36
11 12 14 17 19 21 23 24 25 26 27 27 28 29 30 31 31 32 33 34 35 36 37 37 38 39 39 39 39 39 39 39 39 39 40 40 41 41 40 39 38 38 38
13 15 18 20 22 24 25 26 27 28 28 30 31 31 33 34 34 35 36 37 37 38 38 38 38 39 39 38 38 38 38 38 38 38 39 40 41 42 42 42 41 40 40
16 18 21 23 24 26 27 28 29 30 31 32 33 34 35 36 38 38 39 39 40 40 40 39 39 38 38 37 37 37 37 37 37 38 38 39 41 42 43 43 43 43 43
19 21 22 24 26 27 28 30 31 32 33 35 36 37 38 39 40 42 42 42 42 42 42 41 40 39 37 37 36 36 36 36 36 37 38 39 41 42 44 45 45 45 45
21 22 24 25 27 29 30 31 32 34 35 37 38 39 40 41 43 44 44 45 44 44 43 42 41 39 37 36 36 35 35 36 36 37 37 39 40 42 44 45 46 47 48
22 23 25 27 29 30 32 33 35 36 37 38 39 40 41 43 44 45 46 46 46 45 44 43 41 39 38 37 37 36 35 35 36 37 38 39 40 42 45 46 47 49 50
23 25 26 28 30 32 34 36 37 38 39 40 41 41 43 44 45 46 47 47 46 46 45 43 41 40 39 38 37 36 35 35 35 36 37 39 40 42 44 46 49 50 51
25 26 28 30 32 34 36 37 39 39 40 41 41 42 44 45 46 47 47 47 47 46 45 43 41 40 39 38 37 36 34 35 35 36 37 38 39 41 43 45 48 50 52
26 28 30 32 34 36 38 39 40 40 41 42 43 44 45 46 47 48 48 47 46 46 44 42 41 40 39 38 37 36 35 35 35 36 37 38 39 40 41 44 47 50 52
28 29 31 33 36 38 39 40 40 41 42 43 44 45 46 47 48 48 48 47 46 45 44 42 41 40 39 38 37 36 35 34 34 35 36 37 38 40 41 43 45 48 52
30 31 33 35 37 38 39 40 40 41 43 44 45 46 47 48 49 48 47 46 45 44 43 42 40 39 39 38 37 36 34 33 33 33 34 35 36 38 40 41 44 47 50
33 34 36 37 39 39 40 41 41 42 44 45 46 48 49 50 50 48 47 45 44 43 42 41 40 39 38 37 35 34 33 32 32 32 32 32 33 35 37 39 42 46 50
35 37 39 39 40 41 41 42 43 44 46 47 48 50 51 51 49 47 45 44 43 42 41 40 38 38 37 36 34 33 32 31 29 29 29 29 29 31 33 35 39 44 49
38 39 40 41 41 42 43 44 45 47 48 50 51 52 51 51 49 46 44 43 42 41 40 38 37 36 36 35 34 32 31 28 27 26 26 25 25 26 28 31 35 39 45
39 41 41 42 43 43 44 46 47 49 51 52 52 52 51 50 48 45 43 42 41 39 38 37 36 35 35 34 33 31 28 26 25 23 21 20 20 21 23 25 29 34 40
39 41 42 42 44 45 46 48 50 52 53 54 54 53 51 49 47 44 42 41 40 38 37 36 35 34 33 32 31 29 27 24 22 20 19 17 17 17 17 18 22 27 35
40 41 42 43 45 47 49 51 53 55 56 55 54 52 50 48 45 42 41 40 38 37 36 35 34 33 33 31 30 28 26 22 20 19 17 15 14 14 13 13 15 20 27

GEFSMW_500_meanwind_048.txt.gz
Wind_Speed
16 13 11 10 9 9 10 11 13 13 15 16 17 18 19 19 19 20 20 20 21 21 22 22 22 23 23 23 24 25 25 26 27 28 29 29 31 32 32 33 33 32 32
7 7 7 7 8 9 10 11 13 14 15 16 18 19 20 20 20 20 20 21 21 21 21 22 22 22 23 23 23 24 24 25 25 27 28 29 30 31 32 33 34 35 35
2 3 4 5 7 9 10 12 13 15 16 18 19 19 19 20 20 20 20 20 20 20 20 20 21 21 22 23 23 24 24 25 26 26 27 28 30 31 32 33 34 35 36
3 4 4 6 8 10 12 13 15 16 17 18 18 18 18 18 18 18 18 18 18 18 18 18 19 20 21 22 23 24 25 26 27 27 27 28 29 31 32 33 34 35 36
6 6 7 8 10 12 14 15 16 17 17 17 17 17 17 17 17 17 17 17 16 17 18 18 19 20 21 22 23 24 26 27 28 29 29 29 30 31 32 33 34 35 36
8 8 9 11 12 14 15 15 15 15 16 16 17 17 17 17 18 18 18 18 17 17 18 19 20 21 22 23 24 26 27 28 30 31 32 32 32 33 33 34 35 36 37
10 11 12 13 14 14 14 15 15 16 16 16 16 17 17 18 18 18 19 19 19 20 20 21 21 22 23 24 26 27 29 30 31 33 34 35 35 35 36 36 36 37 38
10 11 12 13 14 14 15 15 15 16 16 16 17 17 18 19 19 19 20 21 22 23 23 23 24 25 26 27 28 29 30 31 32 34 35 37 38 38 38 39 38 38 39
11 11 12 13 14 14 15 15 16 16 17 17 18 19 20 20 21 21 22 23 24 25 26 27 27 28 29 29 30 31 31 33 34 35 36 38 39 39 40 41 41 41 40
11 12 13 13 14 14 15 16 16 17 17 18 19 20 21 22 23 24 25 25 26 27 28 29 30 31 32 32 33 33 33 34 35 35 36 37 39 40 40 41 42 42 42
12 13 13 14 15 15 16 16 17 18 19 20 21 22 23 24 25 25 27 28 29 30 31 33 33 34 35 35 35 35 35 35 35 36 36 37 38 38 40 41 42 43 43
13 14 14 15 16 16 17 18 18 19 20 22 23 24 25 26 27 28 29 30 32 33 34 36 36 37 38 38 37 37 36 35 35 36 36 36 37 37 39 40 41 42 43
14 15 15 16 16 17 18 19 20 21 23 24 25 26 27 28 29 30 31 33 35 36 38 39 40 40 40 40 39 37 36 35 35 35 35 35 35 36 37 39 40 41 43
15 15 16 16 17 18 19 20 22 23 25 26 27 28 29 30 31 33 34 36 37 39 40 41 42 42 42 41 39 37 37 36 35 35 34 34 34 35 36 37 39 40 42
15 15 16 17 18 19 20 22 24 25 27 28 28 29 31 32 33 35 37 39 40 42 43 44 44 43 42 41 39 37 36 36 35 35 34 34 34 34 35 36 37 39 40
15 16 17 18 19 21 23 24 26 27 28 29 30 31 32 34 35 37 39 41 42 44 45 45 44 43 42 40 39 37 36 35 35 34 34 34 33 34 35 36 37 39 40
16 17 18 20 21 23 25 27 28 29 30 31 31 32 34 35 37 39 41 43 44 45 45 45 44 42 41 40 38 37 35 35 34 33 33 33 33 33 34 35 37 38 40
17 19 20 22 24 25 27 28 29 30 31 32 32 34 35 37 39 41 44 45 46 46 46 45 43 41 40 38 37 35 34 34 33 32 32 32 33 33 33 34 35 37 39
20 21 23 24 26 28 29 30 31 32 32 33 34 35 37 39 41 44 46 47 47 47 46 44 42 39 38 37 35 34 33 32 32 32 31 31 32 32 32 33 34 36 39
24 25 26 28 29 30 32 33 33 34 34 35 36 38 40 42 44 46 48 49 48 47 45 43 41 38 37 36 35 33 32 32 31 31 31 31 31 32 32 33 34 35 38
27 28 30 31 33 34 35 35 36 36 37 38 39 41 42 44 47 49 50 50 49 47 44 42 39 37 35 34 33 32 32 31 31 31 31 31 30 31 32 33 34 35 36
30 32 33 34 36 37 38 39 39 40 40 41 42 43 44 47 50 51 51 51 49 46 43 40 37 36 34 34 33 32 32 31 31 30 30 30 30 30 30 31 32 34 35
33 34 36 37 38 40 41 43 44 44 45 45 45 46 47 49 51 52 52 51 49 45 42 39 36 35 34 34 32 32 31 31 30 29 29 29 29 28 28 28 29 30 32
35 37 38 39 40 42 44 46 48 49 50 49 48 49 49 51 52 52 52 51 48 45 41 38 36 35 34 33 32 31 31 30 29 28 28 28 27 27 27 27 27 28 29
38 39 40 41 42 45 47 49 51 53 52 51 51 52 53 53 53 53 52 50 47 44 40 37 35 34 33 33 32 32 31 30 29 28 27 27 26 26 25 25 25 26 27
41 42 43 44 46 48 49 50 52 54 54 54 54 54 54 53 53 52 50 48 45 43 40 37 35 33 32 32 32 31 30 30 28 27 26 25 24 24 23 24 23 24 25

GEFSMW_500_meanwind_054.txt.gz
Wind_Speed
17 16 15 13 11 10 9 8 8 9 9 9 10 11 12 13 14 14 14 15 16 17 18 18 18 19 19 19 20 20 21 21 21 22 22 23 23 24 25 26 27 27 28
12 10 9 8 8 7 7 6 6 6 7 8 9 10 10 11 11 12 13 14 15 16 16 16 17 17 17 17 18 18 19 20 21 21 22 22 23 23 24 26 27 28 29
2 4 4 4 3 3 3 3 4 5 6 7 9 10 11 11 12 12 13 14 15 15 15 16 16 16 16 16 17 17 18 19 20 21 21 22 23 24 25 26 27 28 29
4 3 2 2 2 1 0 2 4 5 7 9 10 11 12 13 14 14 15 15 16 16 16 16 16 16 16 17 17 17 18 19 20 20 21 22 23 24 25 26 27 28 29
5 5 4 4 4 3 3 4 6 8 9 10 11 13 14 14 15 16 16 16 16 16 17 17 18 18 18 18 19 19 20 20 21 22 22 23 24 25 26 27 28 28 30
5 5 5 5 4 4 5 6 8 9 11 12 13 14 15 16 17 17 17 17 17 17 18 19 19 20 20 20 21 21 22 23 24 24 25 25 26 27 28 29 30 31 31
5 5 5 5 5 6 8 9 10 11 13 14 15 15 16 17 18 19 19 19 19 19 19 20 20 21 22 22 23 24 25 25 26 27 28 28 28 29 30 31 31 32 33
6 6 6 7 7 8 9 10 12 13 14 15 16 17 17 18 19 19 19 19 20 20 20 21 22 23 24 25 26 26 27 28 29 30 30 31 32 32 33 33 34 34 35
7 7 7 8 8 9 10 12 13 14 15 16 17 18 19 20 20 20 20 20 20 21 21 23 24 25 26 27 28 29 30 30 31 32 33 34 35 35 36 36 37 37 37
10 10 10 10 10 11 12 13 14 15 16 17 17 18 19 20 20 21 21 21 21 22 24 25 26 28 29 30 31 32 32 33 34 35 35 36 37 38 38 39 39 39 39
12 12 12 12 12 12 12 13 14 15 16 18 19 19 20 20 20 21 21 22 23 24 26 27 29 30 31 32 33 34 35 36 37 37 38 38 39 39 40 40 40 41 41
16 15 14 13 13 13 13 14 15 16 17 19 20 21 21 22 22 22 22 23 24 26 27 29 31 32 33 34 35 36 37 38 38 39 39 39 40 39 40 40 40 41 41
17 17 16 15 15 15 15 15 16 17 18 20 21 22 23 23 24 24 25 26 27 29 30 32 33 34 35 36 37 38 39 39 39 40 40 40 39 39 39 39 40 40 41
17 18 17 17 17 17 17 17 18 19 20 21 23 24 25 25 26 27 28 29 30 32 33 34 35 36 37 38 39 40 41 41 40 40 39 39 38 37 37 38 38 39 40
18 18 18 18 18 18 18 19 20 21 22 24 25 26 27 28 28 29 30 32 33 34 35 36 37 38 40 40 41 42 42 41 40 39 38 37 36 36 36 36 36 37 38
20 19 19 19 19 20 20 21 22 23 24 26 27 28 29 30 31 32 33 34 36 37 38 38 39 41 42 42 42 42 42 41 39 38 37 36 35 35 34 34 35 35 36
21 21 21 21 21 21 22 23 23 25 26 27 29 29 30 31 33 34 35 37 38 39 40 41 42 43 44 43 43 43 42 40 39 37 36 35 34 34 33 33 34 34 35
22 23 23 23 23 23 24 25 26 27 28 29 30 31 32 33 35 36 38 39 40 41 42 43 45 45 45 45 44 43 42 40 38 37 36 35 34 34 33 32 32 32 33
24 25 25 25 26 26 26 27 29 30 31 32 33 34 35 36 38 39 41 42 44 43 43 45 47 47 47 46 45 44 41 39 38 37 36 34 33 33 33 32 31 31 32
27 27 27 28 29 29 30 30 31 33 34 35 36 37 39 40 42 43 43 45 45 45 45 47 49 48 48 47 46 44 41 39 37 36 35 34 32 32 32 32 32 32 32
31 30 30 30 31 32 33 33 34 36 38 39 40 41 42 44 45 46 46 47 47 47 47 48 49 49 49 48 46 44 41 39 36 35 34 33 33 32 33 33 33 33 33
32 33 33 33 34 35 36 36 37 39 41 43 44 46 47 48 49 48 48 48 48 49 50 50 50 49 48 46 44 43 40 38 36 34 33 33 33 33 33 33 33 33 32
34 35 36 36 37 38 39 40 41 43 44 46 47 48 49 50 50 50 50 50 50 52 52 53 52 50 49 47 44 41 39 38 36 34 33 33 33 33 32 32 32 31 31
36 37 38 39 40 41 42 43 44 46 47 48 49 50 51 51 52 52 53 53 53 54 54 54 54 51 49 47 44 41 38 37 35 34 33 33 33 32 32 31 30 30 30
38 39 40 41 42 43 44 45 47 47 49 50 51 52 53 53 54 54 55 55 55 55 55 54 53 51 49 47 44 41 39 37 35 33 32 32 32 31 30 29 28 28 28
40 41 42 43 44 45 46 47 48 49 50 52 53 54 55 55 56 57 56 56 57 56 55 53 52 50 47 45 43 41 38 36 35 33 32 31 31 30 29 28 27 27 27

GEFSMW_500_meanwind_060.txt.gz
Wind_Speed
5 6 6 7 8 7 7 7 4 4 4 3 3 4 4 5 6 6 7 7 8 8 8 9 9 9 10 10 10 10 11 12 13 14 15 16 18 19 20 21 22 22 23
2 5 6 6 6 6 5 5 3 2 2 2 2 2 3 4 5 6 7 7 7 8 8 9 9 9 9 9 9 10 10 11 11 13 14 15 16 17 18 19 21 22 23
3 2 3 6 6 5 5 4 4 2 2 1 1 2 3 4 5 6 7 7 8 8 9 9 10 10 10 10 10 11 11 11 12 13 14 15 15 16 17 18 19 21 22
6 5 5 6 6 5 5 5 4 3 2 1 1 2 3 4 5 6 7 8 9 9 10 10 10 11 11 11 12 12 13 13 13 14 15 16 17 17 18 19 20 21 22
7 7 7 6 6 5 5 5 4 3 1 1 2 2 3 5 6 7 9 10 10 11 11 11 11 12 12 13 13 14 14 15 15 15 16 17 18 19 20 21 21 22 23
7 7 7 7 6 5 5 4 3 2 1 1 2 3 4 6 7 8 9 10 11 12 12 13 13 14 14 15 16 16 17 17 18 18 18 19 19 20 21 22 23 24 25
6 5 5 5 5 4 3 2 2 1 1 2 3 4 6 7 8 9 9 10 11 12 13 14 14 15 16 17 18 18 19 19 20 21 21 22 22 22 23 23 25 25 26
4 3 2 2 3 3 2 2 1 1 2 3 4 6 7 8 9 10 11 11 12 13 13 14 15 16 18 19 20 20 21 22 22 23 23 24 25 25 26 26 26 27 29
2 1 1 2 2 3 3 2 2 3 3 4 5 7 8 9 10 11 12 12 13 14 15 16 17 19 20 21 22 22 23 24 25 25 26 27 27 28 28 29 29 30 30
1 1 2 3 3 4 4 4 4 5 5 6 7 9 10 11 11 12 13 14 15 16 17 18 19 21 22 24 25 25 26 26 27 27 28 29 30 30 31 31 32 32 33
1 1 3 4 4 5 5 5 6 7 8 9 10 11 12 13 14 15 16 17 18 19 20 21 22 24 25 26 27 27 28 29 29 30 31 31 32 32 33 34 35 35 35
3 3 4 5 5 6 7 8 8 9 10 11 12 13 14 15 16 17 18 19 20 21 23 24 25 26 27 28 29 29 30 31 32 32 33 33 33 34 35 35 36 37 37
6 6 6 6 7 8 9 10 11 12 14 15 16 17 17 18 19 20 20 21 23 24 25 26 27 28 29 30 31 31 32 33 33 34 34 35 35 36 36 36 37 37 37
8 8 8 9 10 10 11 12 14 15 17 18 19 20 20 21 22 22 23 24 25 26 27 28 29 31 32 32 33 33 34 34 35 35 36 36 37 37 37 37 37 37 37
10 10 10 11 12 13 13 15 16 17 19 20 22 23 23 24 24 25 26 26 27 29 30 31 32 33 34 34 35 35 35 36 36 37 37 38 38 38 38 37 37 37 36
11 11 12 13 14 15 16 17 18 20 21 23 24 25 26 27 27 28 29 29 30 31 32 33 34 35 35 36 36 36 36 37 37 38 39 39 39 39 38 38 37 37 36
13 12 13 14 15 17 18 20 21 23 24 25 27 28 29 30 30 31 31 32 33 34 34 35 36 37 38 37 37 37 38 38 38 39 39 40 40 39 39 38 37 37 37
15 16 16 17 19 20 21 23 24 26 27 28 30 31 32 32 33 33 34 35 36 37 37 38 39 40 40 39 39 40 39 39 39 40 41 41 41 40 39 38 37 37 37
20 20 21 22 22 23 24 25 27 29 30 31 32 33 34 34 35 36 37 38 39 39 40 40 41 41 42 42 42 42 41 41 41 42 42 42 41 40 39 37 37 37 37
23 24 25 27 27 27 28 29 30 31 32 33 34 35 36 37 38 39 40 41 42 42 42 42 43 43 43 44 44 44 43 43 44 44 44 43 42 40 38 37 36 36 36
27 28 29 30 31 32 33 33 34 34 35 36 36 37 38 39 40 41 43 44 45 45 45 45 44 44 45 45 46 46 46 45 45 45 44 43 42 40 38 37 36 35 35
29 31 33 34 35 36 36 37 38 37 38 38 39 40 40 42 43 44 45 46 47 47 47 47 47 47 47 48 48 48 48 48 47 46 45 43 42 40 38 37 36 36 34
31 33 35 36 37 38 39 39 40 40 40 41 42 43 44 45 46 47 48 48 49 49 49 49 49 49 50 50 50 50 51 50 48 46 45 43 41 40 38 37 36 35 34
32 34 35 36 38 39 40 40 41 43 44 45 45 46 47 48 49 50 51 51 51 52 51 52 52 52 53 53 53 52 52 51 49 46 44 42 40 39 37 36 35 34 33
33 34 36 37 39 40 41 43 44 45 46 47 48 49 50 51 52 52 53 54 54 54 55 55 55 56 55 55 55 54 53 51 49 46 43 41 40 38 37 35 34 33 32
35 36 38 39 40 41 42 44 45 46 47 48 49 51 52 53 54 55 56 56 57 57 58 58 58 58 57 56 56 55 53 50 49 45 42 40 39 37 35 34 32 32 31